{"data":{"norad_id":53801,"intl_designator":"2022-111AE","name":"STARLINK-4715","alt_names":[],"object_type":"PAYLOAD","status":"ACTIVE","operator":null,"country":"US","launch_date":"2022-09-11","launch_site_code":"AFETR","launch_vehicle":null,"mission":null,"orbit_class":"UNKNOWN","rcs_meters":null,"size_class":null,"mass_kg":null,"dimensions":null,"purposes":["comms"],"wikipedia_slug":null,"has_3d_model":false,"image_url":null,"decayed_at":null,"tle_current":{"epoch":"2026-09-20T22:23:15.293760Z","epoch_age_seconds":46673,"freshness":"FRESH","line1":"1 53801U 22111AE  26263.93281590 -.00001168  00000+0 -23438-4 0  9991","line2":"2 53801  53.1621  91.3895 0001329  69.5220 290.5925 15.34382353223513","mean_motion":15.34382353,"eccentricity":0.0001329,"inclination_deg":53.1621,"raan_deg":91.3895,"arg_perigee_deg":69.522,"mean_anomaly_deg":290.5925,"bstar":-2.3438e-5,"rev_number":22351,"period_min":93.848837428594,"perigee_km":461.84653667406,"apogee_km":463.66484595141,"semimajor_km":6840.8926913127,"source":"CELESTRAK","updated_at":"2026-09-21T09:00:32.996150Z"}}}